Regional Weather Roundup
Issued by NWS

Home | Current Version | Previous Version | Text Only | Print | Product List | Glossary On
Versions: 1 2 3 4 5 6 7 8 9 10 11 12 13 14 15 16 17 18 19 20 21 22 23 24 25 26 27 28 29 30 31 32 33 34 35 36 37 38 39 40 41 42 43 44 45 46 47 48 49 50
000
ASUS42 KTBW 210118
RWRFL
FLORIDA REGIONAL WEATHER ROUNDUP
NATIONAL WEATHER SERVICE TAMPA BAY RUSKIN FL
800 PM EST TUE FEB 20 2018

NOTE: "FAIR" INDICATES FEW OR NO CLOUDS BELOW 12,000 FEET WITH NO
SIGNIFICANT WEATHER AND/OR OBSTRUCTIONS TO VISIBILITY.

FLZ001>010-012>015-112-114-115-210200-
PANHANDLE FLORIDA

CITY           SKY/WX    TMP DP  RH WIND       PRES   REMARKS
PENSACOLA      CLOUDY    71  69  93 SE12      30.24S
PENSACOLA NAS  MOCLDY    71  69  93 SE10      30.23R
MILTON NAS     CLOUDY    71  69  93 SE12      30.25S
CRESTVIEW      CLOUDY    71  67  87 CALM      30.28S
DUKE FIELD     MOCLDY    70  67  90 SE7       30.26S
VALPARAISO     MOCLDY    70  68  93 SE10      30.25S
MARY ESTHER    MOCLDY    69  68  94 E7        30.24
PANAMA CITY    MOCLDY    74  66  76 E6        30.27R
TYNDALL AFB    PTCLDY    72  67  85 SE8       30.28S
APALACHICOLA   CLOUDY    72  69  90 E6        30.28S

STATION/POSITION SKY/WX   TEMP    WIND        PRES    WAVE   SWELL
                          AIR SEA DIR/SP/G            HT/PER HT/PER
                          (F)     (DEG/KT/KT) (MB)    (FT/S) (FT/S)
29.2N   88.2W                 72  130/  8/ 12 1022.6R   6/ 8   5/ 8
28.8N   86.0W              74 73  130/ 14/ 16 1023.5    6/ 8   5/ 8
PANAMA CITY BEAC           70 68  120/ 10/ 10 1025.4R
TOWER C          NOT AVBL

$$
FLZ011-016>038-118-127-128-134-139-239-210200-
NORTH FLORIDA

CITY           SKY/WX    TMP DP  RH WIND       PRES   REMARKS
MARIANNA       MOCLDY    75  67  76 SE6       30.29R
TALLAHASSEE    CLOUDY    72  71  97 E5        30.30S
PERRY          CLOUDY    71  65  80 CALM      30.31S
LIVE OAK       MOCLDY    73  64  73 E6        30.32S
CROSS CITY     FAIR      71  68  89 CALM      30.35R
LAKE CITY      FAIR      72  64  78 E9        30.33S
GAINESVILLE    FAIR      74  66  76 E13G21    30.36R
WILLISTON      CLEAR     77  70  78 NE7       30.32R
PALATKA        CLOUDY    72  72 100 SE9       30.36R
MAYPORT NAS    FAIR      69  67  93 SE9       30.37R
JACKSONVILLE   FAIR      72  68  87 SE10      30.36R
JAX NAS        FAIR      73  68  84 SE12      30.37R
JAX CECIL      PTCLDY    73  70  88 SE12      30.36R
FERNANDINA BEA CLOUDY    70  66  88 E7        30.37R
ST AUGUSTINE   FAIR      68  67  96 SE7       30.38R
PALM COAST     FAIR      71  68  91 SE8       30.37R

STATION/POSITION SKY/WX   TEMP    WIND        PRES    WAVE   SWELL
                          AIR SEA DIR/SP/G            HT/PER HT/PER
                          (F)     (DEG/KT/KT) (MB)    (FT/S) (FT/S)
SHELL POINT                72     320/  2/  3 1025.2
KEATON BEACH     NOT AVBL
CEDAR KEY        NOT AVBL
FERNANDINA                 71 67  120/  5/  8 1029.4R
30.7N   81.3W                 63                N/A     4/ 6
MAYPORT                    69 65  120/  5/ 11 1028.5R
31.4N   80.9W              63 59  120/  6/  8 1029.0    4/ 6   3/ 6
ST AUGUSTINE     NOT AVBL

$$
FLZ040-043>046-052-053-057-058-063-144-210200-
INTERIOR CENTRAL FLORIDA

CITY           SKY/WX    TMP DP  RH WIND       PRES   REMARKS
OCALA          FAIR      77  68  73 VRB6      30.32R
LEESBURG       FAIR      78  69  73 E13       30.33R
SANFORD        CLOUDY    74  69  85 E13       30.35R
ORLANDO EXEC   CLOUDY    76  70  82 E12       30.34R
ORLANDO INTL   MOCLDY    75  69  81 E10       30.34R
KISSIMMEE      FAIR      75  69  81 E10       30.35R
WINTER HAVEN   FAIR      76  69  79 E10       30.33R
LAKELAND       MOCLDY    79  68  69 E8        30.32R
BARTOW         FAIR      75  68  78 E10       30.32R
SEBRING        FAIR      76  68  76 E10       30.33R
OKEECHOBEE     FAIR      72  68  88 E5        30.33R

$$
FLZ041-047-054-059-064-141-147-210200-
EAST CENTRAL FLORIDA

CITY           SKY/WX    TMP DP  RH WIND       PRES   REMARKS
DAYTONA BEACH  CLOUDY    74  70  87 SE10G21   30.36R
DELAND         MOCLDY    73  70  88 E13       30.35R
NEW SMYRNA BEA MOCLDY    73  68  83 SE12      30.37R
JFK SPACE CTR  MOCLDY    72  72 100 SE8       30.35R
TITUSVILLE     CLOUDY    77  70  78 E12       30.35R
CAPE CANAVERAL CLOUDY    72  70  92 E8        30.35R
PATRICK AFB    FAIR      74  73  99 E12       30.35R
MELBOURNE      CLOUDY    76  71  85 E13       30.35R
VERO BEACH     MOCLDY    75  72  90 E13       30.35R
FT PIERCE      MOCLDY    74  73  97 E15       30.34R
STUART         MOCLDY    73  72  94 E9        30.35R FOG

STATION/POSITION SKY/WX   TEMP    WIND        PRES    WAVE   SWELL
                          AIR SEA DIR/SP/G            HT/PER HT/PER
                          (F)     (DEG/KT/KT) (MB)    (FT/S) (FT/S)
28.5N   80.2W              75 74  110/ 16/ 19 1028.1R   5/ 6
TRIDENT PIER               72 73   90/  7/ 10 1029.2R
28.4N   80.5W                 72                N/A     3/ 6
27.5N   80.2W                 75                N/A     5/ 6

$$
FLZ050-056-061-142-242-148-248-149-249-151-251-155-255-
160-260-210200-
WEST CENTRAL FLORIDA

CITY           SKY/WX    TMP DP  RH WIND       PRES   REMARKS
CRYSTAL RIVER  CLOUDY    79  63  57 E9        30.30R
INVERNESS      FAIR      77  68  73 E7        30.32R
BROOKSVILLE    FAIR      78  62  57 E7        30.30R
CLEARWATER AIR FAIR      73  68  83 N3        30.29R
ST PETE CLEARW FAIR      76  70  82 N3        30.29R
TAMPA INTL     FAIR      79  68  69 N3        30.30R
TAMPA EXEC     MOCLDY    79  63  57 SE6       30.30R
PLANT CITY     MOCLDY    81  64  57 E5        30.33R
MACDILL AFB    MOCLDY    73  66  78 CALM      30.29R
PETER O KNIGHT CLOUDY    79  68  69 SE6       30.30R
ST PETERSBURG  FAIR      76  69  79 S3        30.27R
SARASOTA       MOCLDY    77  67  71 E3        30.27R
VENICE         CLOUDY    77  70  78 CALM      30.29R

STATION/POSITION SKY/WX   TEMP    WIND        PRES    WAVE   SWELL
                          AIR SEA DIR/SP/G            HT/PER HT/PER
                          (F)     (DEG/KT/KT) (MB)    (FT/S) (FT/S)
27.3N   84.2W                 73                N/A     4/ 6
CLEARWATER BEACH           75 72   20/  5/  6 1025.6R
MIDDLE TAMPA BAY           74     360/  2/  2 1025.7R
VENICE           NOT AVBL

$$
FLZ066-069-070-075>078-162-262-165-265-210200-
SOUTHWEST FLORIDA AND KEYS

CITY           SKY/WX    TMP DP  RH WIND       PRES   REMARKS
PUNTA GORDA    FAIR      75  66  73 E7        30.30R
FT MYERS       FAIR      79  66  64 E9        30.28R
SOUTHWEST INTL FAIR      77  67  71 E9        30.29R
NAPLES         FAIR      78  67  68 E10       30.28R
MARCO ISLAND   FAIR      75  68  78 E7        30.29R
IMMOKALEE      FAIR      75  68  78 E9        30.31R
MARATHON       FAIR      78  68  71 E12G22    30.26R
KEY WEST NAS   FAIR      76  74  93 E21       30.25R
KEY WEST INTL  FAIR      77  72  84 E16G26    30.25R

STATION/POSITION SKY/WX   TEMP    WIND        PRES    WAVE   SWELL
                          AIR SEA DIR/SP/G            HT/PER HT/PER
                          (F)     (DEG/KT/KT) (MB)    (FT/S) (FT/S)
NAPLES                        74  120/  6/  9 1025.3R
DRY TORTUGAS     NOT AVBL
SAND KEY                   77                 1024.5R

$$
FLZ067-068-071>074-168-172>174-210200-
SOUTHEAST FLORIDA

CITY           SKY/WX    TMP DP  RH WIND       PRES   REMARKS
W PALM BEACH   MOCLDY    77  70  79 SE18      30.34R
BOCA RATON     PTCLDY    77  72  83 E12G20    30.33R
FT LAUDER-EXEC FAIR      77  72  84 E15       30.32R
FT LAUDERDALE  MOCLDY    77  73  87 E21       30.31R
POMPANO BEACH  FAIR      77  72  84 E16       30.32R
PEMBROKE PINES FAIR      78  70  76 E14G25    30.33R
OPA LOCKA      MOCLDY    77  71  82 E18G24    30.32R
MIAMI          MOCLDY    77  71  82 E15       30.31R
WEST KENDALL   FAIR      75  71  87 E14       30.30R
HOMESTEAD      FAIR      76  72  87 E12       30.29R

STATION/POSITION SKY/WX   TEMP    WIND        PRES    WAVE   SWELL
                          AIR SEA DIR/SP/G            HT/PER HT/PER
                          (F)     (DEG/KT/KT) (MB)    (FT/S) (FT/S)
PORT EVERGLADES            77      90/ 11/ 18 1026.4R
VIRGINIA KEY               77 78   70/ 16/ 19 1025.4R
LAKE WORTH                 76 77  110/ 15/ 18 1028.0R

$$




USA.gov is the U.S. government's official web portal to all federal, state and local government web resources and services.